Showing default

SCATSAT 1, 41790

Orbit data source: Space-Track

SCATSAT 1, 41790 is a payload satellite owned by ISRO (IN) in SSO that was launched on Mon, 26 Sep 2016 UTC via a PSLV launch vehicle from the Sirharikota (SRI). Payload-class satellites include a variety of spacecraft equipped with specific instruments for various scientific and technological missions. These include communications satellites like Starlink; space stations such as the ISS; scientific satellites like the Hubble; Earth observation satellites from companies like Planet Labs, Umbra, and HawkEye 360; GPS; miniature CubeSats for education and research; and military/defense satellites.

Loading next visibility...
Identifier
41790, 2016-059H
Orbit
SSO
Country
Flag of ININ / IND
Related business
Manufacturer
ISRO SAC/Banga
Mission
Operational Civil Science
Bus & Motor
SSB-2, Unknown motor
Mass
370 kg wet, ~350 kg dry
Launch date (UTC)
2016-09-26 (9 years ago)
Launch vehicle
PSLV
Launch site
Sirharikota (SRI)
Object type
Payload
Rocket body
Debris
Shape & HBR
Box + 2 Pan, 2.0 m
Radar Cross Section
4.015 m², Large (>1 m²)

Expand to show TLE details & history
Last TLE update: 12 hours ago

TLE from 12 hours ago
0 SCATSAT 1
1 41790U 16059H   25260.71941664  .00001251  00000-0  17450-3 0  9994
2 41790  98.1596 316.2777 0056598  46.5228 314.0669 14.78495550 61312
Epoch: 2025-09-17T17:15Z
TLE epoch observation values (Epoch: 2025-09-17T17:15:57.597Z)
Latitude
0.00004°
Longitude
60.39638°
Altitude
609.597 km
Speed
7.569 km/s
True Right ascension
21h 05m 06s
True Declination
0° 00' 00"
Sunlit
Object was in full shadow at epoch
Visualization orbit readout
Latitude
Unknown
Longitude
Unknown
Altitude
Unknown
Speed
Unknown
Apparent Right ascension
Unknown
Apparent Declination
Unknown
Sunlit
N/A
Visualization observer readout
Local Sidereal Time
21:57:54
Azimuth
Unknown
Elevation
Unknown
Doppler factor
Unknown
Orbital elements
Apogee altitude
670.803 km
Perigee altitude
591.46 km
Semi-major axis
7,009.269 km
Eccentricity
0.00566
Inclination
98.1596°
RAAN
316.2777°
Arg. of periapsis
46.5228°
True anomaly
313.59859°
Mean anomaly
314.0669°
Eccentric anomaly
313.83297°
Mean motion
3.69857 °/min
Orbital period
97.33 mins
BSTAR
0.0001745
Loading maneuver chart data...
Computing Atmospheric mass density...
Loading historical data...
Loading historical data...
Loading historical data...
Loading historical data...
Loading historical data...
Loading historical data...
Loading historical data...

Documentation

Showing up to 5 results
|